Weather History for KCAE - October, 2013

Change the Weather History Date:

Tuesday, October 8, 2013

  Actual Average Record
Temperature  
Mean Temperature 64 °F 67 °F  
Max Temperature 69 °F 78 °F 93 °F (1941)
Min Temperature 58 °F 55 °F 37 °F (1987)
Degree Days  
Heating Degree Days 1 2  
Month to date heating degree days 1 13  
Since 1 July heating degree days 1 21  
Cooling Degree Days 0 4  
Month to date cooling degree days 60 38  
Year to date cooling degree days 2098 2105  
Growing Degree Days 12 (Base 50)    
Moisture  
Dew Point 54 °F    
Average Humidity 73    
Maximum Humidity 87    
Minimum Humidity 58    
Precipitation  
Precipitation 0.01 in 0.10 in 3.13 in (1946)
Month to date precipitation 1.95 0.89  
Year to date precipitation 47.50 36.35  
Sea Level Pressure  
Sea Level Pressure 30.06 in    
Wind  
Wind Speed 10 mph (NNE)    
Max Wind Speed 18 mph    
Max Gust Speed 28 mph    
Visibility 9 miles    
Events Rain    
T = Trace of Precipitation, MM = Missing Value Source: NWS Daily Summary

Daily Weather History Graph

Daily Weather History Graph

Search for Another Location

Airport or City:

Trip Planner

Search our weather history database for the weather conditions in past years. The results will help you decide how hot, cold, wet, or windy it might be!

Date:

Astronomy

Oct. 08, 2013 Rise Set
Actual Time 7:24 AM EDT 6:59 PM EDT
Civil Twilight 6:59 AM EDT 7:24 PM EDT
Nautical Twilight 6:30 AM EDT 7:52 PM EDT
Astronomical Twilight 6:01 AM EDT 8:21 PM EDT
Moon 11:06 AM EDT (10/8) 9:44 PM EDT (10/8)
Length of Visible Light 12h 24m
Length of Day
11h 34m
Waxing Crescent, 16% of the Moon is Illuminated
Oct 8
Waxing Crescent
Oct 11
First Quarter
Oct 18
Full
Oct 26
Last Quarter
Nov 3
New

Hourly Weather History & Observations

Time (EDT) Temp. Dew Point Humidity Pressure Visibility Wind Dir Wind Speed Gust Speed Precip Events Conditions
12:56 AM 69.1 °F 60.1 °F 73% 29.95 in 10.0 mi NW 3.5 mph - N/A   Overcast
1:56 AM 66.9 °F 60.1 °F 79% 29.93 in 10.0 mi North 6.9 mph - N/A   Overcast
2:56 AM 68.0 °F 57.0 °F 68% 29.93 in 10.0 mi NNE 6.9 mph - N/A   Overcast
3:56 AM 68.0 °F 55.0 °F 63% 29.93 in 10.0 mi NNE 9.2 mph - N/A   Mostly Cloudy
4:25 AM 68.0 °F 53.6 °F 60% 29.94 in 10.0 mi NE 10.4 mph - N/A   Overcast
4:56 AM 68.0 °F 53.1 °F 59% 29.95 in 10.0 mi NNE 8.1 mph - N/A   Overcast
5:56 AM 66.9 °F 52.0 °F 59% 29.99 in 10.0 mi NNE 8.1 mph - N/A   Overcast
6:56 AM 66.0 °F 52.0 °F 60% 30.01 in 10.0 mi NNE 10.4 mph - N/A   Overcast
7:29 AM 66.2 °F 53.6 °F 64% 30.02 in 10.0 mi NNE 9.2 mph 18.4 mph N/A   Overcast
7:56 AM 66.0 °F 53.1 °F 63% 30.03 in 10.0 mi NNE 9.2 mph - N/A   Overcast
8:56 AM 64.9 °F 53.1 °F 65% 30.06 in 10.0 mi NNE 10.4 mph - N/A   Overcast
9:56 AM 64.9 °F 53.1 °F 65% 30.07 in 10.0 mi NNE 13.8 mph 20.7 mph N/A   Overcast
10:45 AM 64.4 °F 51.8 °F 64% 30.10 in 10.0 mi ENE 12.7 mph 21.9 mph N/A   Overcast
10:56 AM 64.9 °F 52.0 °F 63% 30.09 in 10.0 mi ENE 11.5 mph 20.7 mph N/A   Overcast
11:56 AM 64.0 °F 53.1 °F 67% 30.10 in 10.0 mi North 12.7 mph 19.6 mph N/A   Overcast
12:56 PM 62.1 °F 53.1 °F 72% 30.10 in 10.0 mi NNE 11.5 mph 25.3 mph N/A   Overcast
1:56 PM 60.1 °F 52.0 °F 75% 30.11 in 10.0 mi NNE 12.7 mph 24.2 mph N/A   Overcast
2:56 PM 60.1 °F 54.0 °F 80% 30.11 in 10.0 mi NE 9.2 mph - 0.00 in Rain Light Rain
3:56 PM 60.1 °F 54.0 °F 80% 30.12 in 10.0 mi NNE 8.1 mph - 0.00 in   Overcast
4:12 PM 59.0 °F 55.4 °F 88% 30.12 in 1.8 mi NNE 8.1 mph - 0.00 in Rain Light Rain
4:21 PM 59.0 °F 55.4 °F 88% 30.12 in 5.0 mi NNE 10.4 mph - 0.01 in Rain Light Rain
4:56 PM 59.0 °F 55.0 °F 87% 30.12 in 5.0 mi NNE 9.2 mph - 0.01 in   Overcast
5:56 PM 59.0 °F 54.0 °F 83% 30.13 in 10.0 mi NE 16.1 mph 27.6 mph 0.00 in Rain Light Rain
6:56 PM 59.0 °F 54.0 °F 83% 30.13 in 10.0 mi NE 10.4 mph 19.6 mph 0.00 in   Mostly Cloudy
7:56 PM 59.0 °F 53.1 °F 81% 30.13 in 10.0 mi NE 13.8 mph 23.0 mph N/A   Mostly Cloudy
8:56 PM 59.0 °F 53.1 °F 81% 30.14 in 10.0 mi NE 10.4 mph 17.3 mph N/A   Mostly Cloudy
9:56 PM 60.1 °F 52.0 °F 75% 30.14 in 10.0 mi NNE 10.4 mph - N/A   Scattered Clouds
10:56 PM 60.1 °F 52.0 °F 75% 30.15 in 10.0 mi NNE 8.1 mph - N/A   Mostly Cloudy
11:56 PM 60.1 °F 52.0 °F 75% 30.15 in 10.0 mi North 5.8 mph - N/A   Overcast